Location: Boursonne
(49.2024°N, 3.0468°E)
Time: 10:23:24
(UTC+00:00)

Cosmos 2360 Rocket - Pass Details

Date: 03 March 2021
Orbit: 832 x 846 km, 71.0° (Epoch: 10 April)

Event Time Altitude Azimuth Distance (km) Brightness Sun altitude
Rises 20:21:17 0° 236° (SW) 3,384 5.7 -27.5°
Reaches altitude 10° 20:23:56 10° 245° (WSW) 2,456 5.1 -27.9°
Maximum altitude 20:29:04 35° 311° (NW) 1,332 3.7 -28.7°
Drops below altitude 10° 20:34:16 10° 17° (NNE) 2,476 4.7 -29.4°
Sets 20:36:57 0° 26° (NNE) 3,416 5.4 -29.8°
